GW2765 Weather Reports


Display with metric or nautical units.
time (UTC)temp
F
wind
direction
speed
MPH
gust
MPH
rain 1hr
in
rain 24hr
in
rain mn
in
humidity
%
barometer
mb
20260505173640 73 63 1.0 5.0 0.00 0.00 0.00 43 1012.5
20260505172911 72 283 1.0 5.0 0.00 0.00 0.00 43 1012.6
20260505172410 72 352 1.0 4.0 0.00 0.00 0.00 44 1012.5
20260505171911 72 287 1.0 7.0 0.00 0.00 0.00 44 1012.5
20260505171412 71 52 2.0 7.0 0.00 0.00 0.00 44 1012.5
20260505170911 72 336 2.0 6.0 0.00 0.00 0.00 44 1012.5
20260505170410 73 310 0.0 4.0 0.00 0.00 0.00 43 1012.6
20260505165916 73 57 0.0 3.0 0.00 0.00 0.00 43 1012.5
20260505165408 71 119 1.0 4.0 0.00 0.00 0.00 46 1012.4
20260505165135 71 330 1.0 6.0 0.00 0.00 0.00 45 1012.5
20260505164631 71 51 1.0 6.0 0.00 0.00 0.00 46 1012.5
20260505163907 71 346 1.0 5.0 0.00 0.00 0.00 47 1012.4
20260505163408 70 226 1.0 5.0 0.00 0.00 0.00 46 1012.3
20260505162907 71 82 1.0 4.0 0.00 0.00 0.00 46 1012.3
20260505162406 71 203 0.0 3.0 0.00 0.00 0.00 45 1012.3
20260505162137 71 33 0.0 3.0 0.00 0.00 0.00 46 1012.4
20260505160903 70 193 0.0 3.0 0.00 0.00 0.00 48 1012.2
20260505160403 69 245 1.0 3.0 0.00 0.00 0.00 48 1012.1
20260505152901 68 244 0.0 3.0 0.00 0.00 0.00 51 1012.1
20260505151353 69 94 0.0 1.0 0.00 0.00 0.00 50 1012.0
20260505151124 68 225 0.0 1.0 0.00 0.00 0.00 52 1012.1
20260505150626 68 82 0.0 2.0 0.00 0.00 0.00 53 1012.1
20260505140343 62 148 0.0 1.0 0.00 0.00 0.00 61 1011.9
20260505124829 58 177 0.0 1.0 0.00 0.00 0.00 68 1011.3
20260505124329 58 201 0.0 0.0 0.00 0.00 0.00 68 1011.3
20260505123830 58 201 0.0 0.0 0.00 0.00 0.00 67 1011.2
20260505123331 58 201 0.0 0.0 0.00 0.00 0.00 67 1011.3
20260505123056 58 201 0.0 0.0 0.00 0.00 0.00 67 1011.4
20260505122331 58 201 0.0 0.0 0.00 0.00 0.00 66 1011.3
20260505121830 59 201 0.0 0.0 0.00 0.00 0.00 65 1011.4
20260505121329 59 201 0.0 0.0 0.00 0.00 0.00 64 1011.4
20260505120829 59 201 0.0 1.0 0.00 0.00 0.00 64 1011.4
20260505120329 59 250 0.0 1.0 0.00 0.00 0.00 65 1011.3
20260505115829 59 127 0.0 1.0 0.00 0.00 0.00 64 1011.3
20260505115330 59 106 0.0 2.0 0.00 0.00 0.00 64 1011.3
20260505114831 59 99 1.0 3.0 0.00 0.00 0.00 65 1011.2
20260505114329 59 130 1.0 3.0 0.00 0.00 0.00 65 1011.3
20260505113830 59 212 0.0 2.0 0.00 0.00 0.00 65 1011.3
20260505113329 59 198 0.0 0.0 0.00 0.00 0.00 65 1011.3
20260505112829 59 175 0.0 0.0 0.00 0.00 0.00 65 1011.4
20260505112328 59 175 0.0 0.0 0.00 0.00 0.00 65 1011.4
20260505111610 60 153 0.0 1.0 0.00 0.00 0.00 64 1011.4
20260505110828 60 153 0.0 2.0 0.00 0.00 0.00 63 1011.6
20260505110554 60 115 0.0 2.0 0.00 0.00 0.00 63 1011.6
20260505101808 60 176 0.0 1.0 0.00 0.00 0.00 64 1011.3
20260505101308 60 154 0.0 0.0 0.00 0.00 0.00 63 1011.3
20260505100809 60 154 0.0 0.0 0.00 0.00 0.00 63 1011.3
20260505100307 60 154 0.0 0.0 0.00 0.00 0.00 63 1011.3
20260505095805 60 62 0.0 0.0 0.00 0.00 0.00 62 1011.3
20260505095305 60 61 0.0 0.0 0.00 0.00 0.00 61 1011.3
20260505094803 61 62 0.0 1.0 0.00 0.00 0.00 61 1011.3
20260505094311 60 54 0.0 1.0 0.00 0.00 0.00 61 1011.3
20260505093803 60 96 0.0 1.0 0.00 0.00 0.00 61 1011.5
20260505093300 60 113 0.0 1.0 0.00 0.00 0.00 61 1011.4
20260505092803 61 113 0.0 1.0 0.00 0.00 0.00 61 1011.5
20260505092300 61 117 0.0 4.0 0.00 0.00 0.00 60 1011.5
20260505091802 61 118 0.0 4.0 0.00 0.00 0.00 60 1011.5
20260505091300 61 112 0.0 3.0 0.00 0.00 0.00 60 1011.4
20260505091028 61 111 0.0 3.0 0.00 0.00 0.00 60 1011.4
20260505090301 61 165 0.0 3.0 0.00 0.00 0.00 60 1011.3
20260505085802 61 153 1.0 3.0 0.00 0.00 0.00 60 1011.4
20260505085301 62 167 1.0 2.0 0.00 0.00 0.00 60 1011.4
20260505084803 62 179 1.0 2.0 0.00 0.00 0.00 60 1011.4
20260505084302 62 170 0.0 1.0 0.00 0.00 0.00 59 1011.5
20260505083801 62 198 0.0 1.0 0.00 0.00 0.00 59 1011.6
20260505083302 62 155 0.0 3.0 0.00 0.00 0.00 58 1011.6
20260505082801 62 143 0.0 3.0 0.00 0.00 0.00 58 1011.5
20260505082304 62 147 0.0 2.0 0.00 0.00 0.00 58 1011.6
20260505081801 62 174 0.0 2.0 0.00 0.00 0.00 57 1011.7
20260505081301 62 167 0.0 1.0 0.00 0.00 0.00 57 1011.7
20260505080803 62 113 0.0 2.0 0.00 0.00 0.00 56 1011.6
20260505080302 63 150 1.0 2.0 0.00 0.00 0.00 56 1011.5
20260505075801 63 180 1.0 2.0 0.00 0.00 0.00 56 1011.6
20260505075304 63 212 1.0 2.0 0.00 0.00 0.00 55 1011.6
20260505074802 63 224 1.0 2.0 0.00 0.00 0.00 55 1011.5
20260505074523 64 184 0.0 2.0 0.00 0.00 0.00 54 1011.5
20260505073801 64 157 0.0 2.0 0.00 0.00 0.00 53 1011.5
20260505073300 64 159 0.0 1.0 0.00 0.00 0.00 52 1011.5
20260505072802 64 134 1.0 4.0 0.00 0.00 0.00 52 1011.5
20260505072532 64 84 1.0 4.0 0.00 0.00 0.00 52 1011.4
20260505071802 64 125 1.0 3.0 0.00 0.00 0.00 51 1011.5
20260505071300 65 131 1.0 3.0 0.00 0.00 0.00 51 1011.6
20260505070801 64 105 0.0 3.0 0.00 0.00 0.00 51 1011.6
20260505070305 65 103 1.0 3.0 0.00 0.00 0.00 50 1011.6
20260505065802 65 121 1.0 3.0 0.00 0.00 0.00 50 1011.4
20260505065303 65 96 0.0 4.0 0.00 0.00 0.00 49 1011.5
20260505064804 65 77 1.0 4.0 0.00 0.00 0.00 49 1011.4
20260505064541 65 84 1.0 6.0 0.00 0.00 0.00 49 1011.5
20260505063302 66 87 1.0 4.0 0.00 0.00 0.00 48 1011.4
20260505063029 66 64 1.0 4.0 0.00 0.00 0.00 48 1011.4
20260505062301 65 60 0.0 4.0 0.00 0.00 0.00 48 1011.4
20260505061801 65 60 0.0 3.0 0.00 0.00 0.00 49 1011.5
20260505061301 65 77 0.0 4.0 0.00 0.00 0.00 50 1011.5
20260505060802 65 76 0.0 4.0 0.00 0.00 0.00 50 1011.4
20260505060303 65 148 0.0 2.0 0.00 0.00 0.00 49 1011.6
20260505055802 66 77 0.0 2.0 0.00 0.00 0.00 49 1011.6
20260505055304 66 84 1.0 4.0 0.00 0.00 0.00 49 1011.6
20260505054802 65 55 1.0 4.0 0.00 0.00 0.00 50 1011.6
20260505054531 66 5 0.0 2.0 0.00 0.00 0.00 50 1011.7
20260505053817 66 61 0.0 2.0 0.00 0.00 0.00 49 1011.6
20260505053302 66 98 0.0 2.0 0.00 0.00 0.00 49 1011.7
20260505052801 66 80 0.0 3.0 0.00 0.00 0.00 49 1011.7
20260505052304 67 80 1.0 3.0 0.00 0.00 0.00 49 1011.7
20260505051801 67 65 1.0 2.0 0.00 0.00 0.00 49 1011.6
20260505051301 67 76 0.0 2.0 0.00 0.00 0.00 49 1011.8
20260505050800 67 109 0.0 1.0 0.00 0.00 0.00 49 1012.0
20260505050257 67 94 0.0 2.0 0.00 0.00 0.00 48 1011.8
20260505041745 68 34 0.0 2.0 0.00 0.00 0.00 45 1011.6
20260505041243 69 33 0.0 2.0 0.00 0.00 0.00 44 1011.5
20260505040743 69 12 1.0 6.0 0.00 0.00 0.00 42 1011.5
20260505040245 70 28 1.0 6.0 0.00 0.00 0.00 41 1011.4
20260505035741 70 333 2.0 7.0 0.00 0.00 0.00 40 1011.4
20260505035241 70 300 2.0 7.0 0.00 0.00 0.00 39 1011.4
20260505034741 70 294 2.0 7.0 0.00 0.00 0.00 38 1011.4
20260505033742 71 243 4.0 11.0 0.00 0.00 0.00 37 1011.1
20260505033242 71 326 6.0 11.0 0.00 0.00 0.00 37 1011.0
20260505033000 71 270 6.0 14.0 0.00 0.00 0.00 37 1010.9
20260505032232 71 269 5.0 14.0 0.00 0.00 0.00 37 1010.8
20260505031731 71 304 6.0 16.0 0.00 0.00 0.00 38 1010.7
20260505031232 71 232 9.0 18.0 0.00 0.00 0.00 38 1010.7
20260505030730 71 251 9.0 18.0 0.00 0.00 0.00 38 1010.6
20260505030229 71 262 9.0 21.0 0.00 0.00 0.00 38 1010.7
20260505025729 71 250 10.0 21.0 0.00 0.00 0.00 38 1010.6
20260505025457 71 252 9.0 19.0 0.00 0.00 0.00 39 1010.6
20260505024954 71 300 10.0 20.0 0.00 0.00 0.00 39 1010.5
20260505024229 71 273 9.0 20.0 0.00 0.00 0.00 39 1010.6
20260505023731 72 248 8.0 19.0 0.00 0.00 0.00 40 1010.5
20260505023229 72 285 8.0 15.0 0.00 0.00 0.00 40 1010.5
20260505022729 72 290 9.0 17.0 0.00 0.00 0.00 39 1010.4
20260505022458 73 264 9.0 18.0 0.00 0.00 0.00 37 1010.4
20260505022002 73 193 8.0 18.0 0.00 0.00 0.00 37 1010.6
20260505021456 73 245 10.0 21.0 0.00 0.00 0.00 36 1010.4
20260505020732 73 219 13.0 22.0 0.00 0.00 0.00 36 1010.6
20260505020511 73 253 14.0 22.0 0.00 0.00 0.00 35 1010.5
20260505015954 74 259 11.0 22.0 0.00 0.00 0.00 34 1010.5
20260505015230 74 329 8.0 20.0 0.00 0.00 0.00 33 1010.5
20260505014729 75 249 10.0 20.0 0.00 0.00 0.00 32 1010.4
20260505014229 75 236 12.0 24.0 0.00 0.00 0.00 32 1010.3
20260505013730 75 240 10.0 24.0 0.00 0.00 0.00 32 1010.4
20260505013229 76 286 8.0 18.0 0.00 0.00 0.00 31 1010.5
20260505012729 76 296 7.0 18.0 0.00 0.00 0.00 30 1010.4
20260505012228 76 263 7.0 18.0 0.00 0.00 0.00 30 1010.4
20260505011728 77 268 7.0 15.0 0.00 0.00 0.00 30 1010.3
20260505011229 77 248 8.0 15.0 0.00 0.00 0.00 30 1010.4
20260505010730 76 228 10.0 23.0 0.00 0.00 0.00 31 1010.5
20260505010229 76 251 12.0 23.0 0.00 0.00 0.00 31 1010.7
20260505005729 76 263 12.0 25.0 0.00 0.00 0.00 30 1010.5
20260505005231 77 221 11.0 25.0 0.00 0.00 0.00 30 1010.5
20260505004732 77 239 8.0 20.0 0.00 0.00 0.00 29 1010.5
20260505004504 77 278 7.0 14.0 0.00 0.00 0.00 29 1010.5
20260505003730 78 272 6.0 14.0 0.00 0.00 0.00 29 1010.4
20260505003229 78 302 4.0 13.0 0.00 0.00 0.00 30 1010.5
20260505002728 78 332 2.0 9.0 0.00 0.00 0.00 30 1010.3
20260505002228 78 72 2.0 6.0 0.00 0.00 0.00 32 1010.6
20260505001728 78 303 3.0 7.0 0.00 0.00 0.00 31 1010.6
20260505001229 77 25 3.0 7.0 0.00 0.00 0.00 33 1010.6
20260505000729 77 63 4.0 13.0 0.00 0.00 0.00 33 1010.5
20260505000229 77 70 5.0 13.0 0.00 0.00 0.00 33 1010.5
20260504235729 78 316 4.0 12.0 0.00 0.00 0.00 32 1010.5
20260504235229 78 316 3.0 9.0 0.00 0.00 0.00 32 1010.3
20260504234729 78 44 3.0 9.0 0.00 0.00 0.00 33 1010.3
20260504234229 78 1 3.0 9.0 0.00 0.00 0.00 33 1010.4
20260504233731 78 323 2.0 9.0 0.00 0.00 0.00 31 1010.2
20260504233228 79 14 3.0 9.0 0.00 0.00 0.00 31 1010.3
20260504232729 79 58 2.0 7.0 0.00 0.00 0.00 32 1010.2
20260504232234 78 32 2.0 10.0 0.00 0.00 0.00 32 1010.3
20260504231729 78 42 3.0 10.0 0.00 0.00 0.00 31 1010.3
20260504231229 78 10 3.0 9.0 0.00 0.00 0.00 32 1010.3
20260504230729 78 58 3.0 9.0 0.00 0.00 0.00 32 1010.3
20260504230230 78 81 1.0 6.0 0.00 0.00 0.00 32 1010.2
20260504225730 79 1 1.0 5.0 0.00 0.00 0.00 32 1010.4
20260504225502 79 289 1.0 5.0 0.00 0.00 0.00 31 1010.4
20260504225002 79 63 1.0 6.0 0.00 0.00 0.00 31 1010.5
20260504224229 79 18 1.0 6.0 0.00 0.00 0.00 31 1010.5
20260504223729 78 335 1.0 9.0 0.00 0.00 0.00 33 1010.6
20260504223229 78 98 3.0 9.0 0.00 0.00 0.00 33 1010.7
20260504222732 78 82 3.0 13.0 0.00 0.00 0.00 34 1010.7
20260504222229 78 307 2.0 13.0 0.00 0.00 0.00 33 1010.6
20260504221730 77 99 2.0 5.0 0.00 0.00 0.00 33 1010.9
20260504221455 77 6 2.0 8.0 0.00 0.00 0.00 33 1010.9
20260504220728 78 91 3.0 10.0 0.00 0.00 0.00 32 1010.9
20260504220228 77 40 3.0 10.0 0.00 0.00 0.00 34 1011.0
20260504215730 77 56 2.0 7.0 0.00 0.00 0.00 32 1011.0
20260504215500 78 39 1.0 5.0 0.00 0.00 0.00 33 1011.1
20260504214955 77 18 1.0 6.0 0.00 0.00 0.00 33 1011.3
20260504214502 77 210 2.0 6.0 0.00 0.00 0.00 33 1011.3
20260504213730 77 62 3.0 7.0 0.00 0.00 0.00 33 1011.4
20260504213457 78 41 3.0 9.0 0.00 0.00 0.00 32 1011.5
20260504212730 78 351 2.0 9.0 0.00 0.00 0.00 33 1011.4
20260504212455 78 75 2.0 5.0 0.00 0.00 0.00 32 1011.8
20260504211728 78 160 1.0 5.0 0.00 0.00 0.00 32 1011.6
20260504211228 78 34 2.0 6.0 0.00 0.00 0.00 31 1011.7
20260504210729 78 130 2.0 6.0 0.00 0.00 0.00 33 1011.8
20260504210229 79 143 2.0 6.0 0.00 0.00 0.00 32 1011.8
20260504210007 77 108 2.0 6.0 0.00 0.00 0.00 33 1011.9
20260504205230 78 56 1.0 5.0 0.00 0.00 0.00 32 1011.9
20260504204731 78 91 2.0 7.0 0.00 0.00 0.00 33 1011.9
20260504204228 77 62 1.0 7.0 0.00 0.00 0.00 33 1012.1
20260504203727 77 39 0.0 5.0 0.00 0.00 0.00 33 1012.3
20260504203455 76 79 1.0 7.0 0.00 0.00 0.00 32 1012.3
20260504202725 76 39 2.0 7.0 0.00 0.00 0.00 33 1012.3
20260504202224 76 302 2.0 6.0 0.00 0.00 0.00 34 1012.3
20260504201723 76 73 2.0 5.0 0.00 0.00 0.00 34 1012.3
20260504201223 76 109 2.0 5.0 0.00 0.00 0.00 34 1012.4
20260504200723 76 63 3.0 7.0 0.00 0.00 0.00 34 1012.6
20260504200222 76 109 2.0 7.0 0.00 0.00 0.00 35 1012.6
20260504195723 76 93 2.0 6.0 0.00 0.00 0.00 35 1012.6
20260504195223 75 346 2.0 6.0 0.00 0.00 0.00 36 1012.6
20260504194717 75 69 2.0 7.0 0.00 0.00 0.00 36 1012.6
20260504194211 75 52 2.0 7.0 0.00 0.00 0.00 35 1012.8
20260504193704 74 66 3.0 8.0 0.00 0.00 0.00 36 1012.8
20260504193426 74 76 3.0 8.0 0.00 0.00 0.00 36 1012.8
20260504192704 74 97 2.0 7.0 0.00 0.00 0.00 36 1012.9
20260504192203 74 58 1.0 5.0 0.00 0.00 0.00 36 1013.0
20260504191926 74 355 2.0 7.0 0.00 0.00 0.00 37 1013.0
20260504191429 73 343 2.0 7.0 0.00 0.00 0.00 37 1013.0
20260504190704 74 127 1.0 6.0 0.00 0.00 0.00 37 1013.1
20260504190202 73 60 1.0 5.0 0.00 0.00 0.00 37 1013.1
20260504185702 72 72 2.0 7.0 0.00 0.00 0.00 37 1013.1
20260504185202 73 84 1.0 7.0 0.00 0.00 0.00 37 1013.3
20260504184702 72 61 1.0 4.0 0.00 0.00 0.00 39 1013.4
20260504184203 72 52 1.0 4.0 0.00 0.00 0.00 38 1013.3
20260504183702 72 62 1.0 3.0 0.00 0.00 0.00 39 1013.3
20260504183202 72 248 1.0 3.0 0.00 0.00 0.00 38 1013.4
20260504182702 72 359 0.0 2.0 0.00 0.00 0.00 40 1013.4
20260504182202 71 84 1.0 4.0 0.00 0.00 0.00 39 1013.4
20260504181702 71 85 1.0 4.0 0.00 0.00 0.00 39 1013.3
20260504181203 71 127 1.0 4.0 0.00 0.00 0.00 39 1013.3
20260504180202 71 29 1.0 4.0 0.00 0.00 0.00 41 1013.3
20260504175701 70 78 1.0 4.0 0.00 0.00 0.00 41 1013.3
20260504175202 71 344 0.0 3.0 0.00 0.00 0.00 40 1013.3
20260504174701 71 49 0.0 4.0 0.00 0.00 0.00 40 1013.2
20260504174201 71 148 0.0 4.0 0.00 0.00 0.00 41 1013.2